STARLINK-3821, 52357

Orbit data source: Space-Track

STARLINK-3821, 52357 is a payload satellite owned by SpaceX/Seattle (US) in LEO that was launched on Fri, 29 Apr 2022 UTC via an FALCON 9 launch vehicle from the Air Force Eastern Test Range (AFETR). Payload-class satellites include a variety of spacecraft equipped with specific instruments for various scientific and technological missions. These include communications satellites like Starlink; space stations such as the ISS; scientific satellites like the Hubble; Earth observation satellites from companies like Planet Labs, Umbra, and HawkEye 360; GPS; miniature CubeSats for education and research; and military/defense satellites.

Loading next visibility...
Identifier
52357, 2022-045AC
Orbit
LEO
Country
Flag of USUS
Related business
Manufacturer
SpaceX/Seattle
Mission
Operational Commercial Communications
Bus & Motor
STARLINK, Unknown motor
Mass
297 kg wet, ~275 kg dry
Launch date (UTC)
2022-04-29 (4 years ago)
Launch vehicle
FALCON 9
Launch site
Air Force Eastern Test Range (AFETR)
Object type
Payload
Rocket body
Debris
Shape & HBR
Box + 1 Pan, 10.1 m
Radar Cross Section
11.087 m², Large (>1 m²)

Expand to show TLE details & history
Last TLE update: 16 hours ago

TLE from 16 hours ago
0 STARLINK-3821
1 52357U 22045AC  25349.95413578  .00000917  00000-0  75741-4 0  9995
2 52357  53.2162 215.0244 0001279  89.7828 270.3311 15.08824152203145
Epoch: 2025-12-15T22:53Z
TLE epoch observation values (Epoch: 2025-12-15T22:53:57.331Z)
Latitude
0.00001°
Longitude
146.69023°
Altitude
540.684 km
Speed
7.593 km/s
True Right ascension
14h 20m 05s
True Declination
0° 00' 00"
Sunlit
Object was in daylight at epoch
Visualization orbit readout
Latitude
Unknown
Longitude
Unknown
Altitude
Unknown
Speed
Unknown
Apparent Right ascension
Unknown
Apparent Declination
Unknown
Sunlit
N/A
Visualization observer readout
Local Sidereal Time
13:48:19
Azimuth
Unknown
Elevation
Unknown
Doppler factor
Unknown
Orbital elements
Apogee altitude
540.922 km
Perigee altitude
539.152 km
Semi-major axis
6,918.174 km
Eccentricity
0.00013
Inclination
53.2162°
RAAN
215.0244°
Arg. of periapsis
89.7828°
True anomaly
270.31644°
Mean anomaly
270.3311°
Eccentric anomaly
270.32377°
Mean motion
3.77186 °/min
Orbital period
95.44 mins
BSTAR
0.000075741
Loading maneuver chart data...
Computing Atmospheric mass density...

Documentation

Showing up to 5 results
|